Time,TemperatureF,DewpointF,PressureIn,WindDirection,WindDirectionDegrees,WindSpeedMPH,WindSpeedGustMPH,Humidity,HourlyPrecipIn,Conditions,Clouds,dailyrainin,SoftwareType,DateUTC
2013-05-31 00:12:00,80.0,-99.9,30.05,East,100,16.0,18.0,-999,-99.99,,,-99.99,,2013-05-31 04:12:00,
2013-05-31 00:23:00,80.0,-99.9,30.05,East,100,16.0,18.0,-999,-99.99,,,-99.99,,2013-05-31 04:23:00,
2013-05-31 00:53:00,80.0,-99.9,30.04,East,100,16.0,18.0,-999,-99.99,,,-99.99,,2013-05-31 04:53:00,
2013-05-31 01:02:00,80.0,-99.9,30.03,ESE,110,11.0,16.0,-999,-99.99,,,-99.99,,2013-05-31 05:02:00,
2013-05-31 01:12:00,80.0,-99.9,30.03,ESE,110,11.0,16.0,-999,-99.99,,,-99.99,,2013-05-31 05:12:00,
2013-05-31 01:22:00,80.0,-99.9,30.03,ESE,110,11.0,16.0,-999,-99.99,,,-99.99,,2013-05-31 05:22:00,
2013-05-31 01:32:00,80.0,-99.9,30.02,ESE,120,11.0,11.0,-999,-99.99,,,-99.99,,2013-05-31 05:32:00,
2013-05-31 01:42:00,80.0,-99.9,30.02,ESE,120,11.0,11.0,-999,-99.99,,,-99.99,,2013-05-31 05:42:00,
2013-05-31 01:52:00,80.0,-99.9,30.02,ESE,120,11.0,11.0,-999,-99.99,,,-99.99,,2013-05-31 05:52:00,
2013-05-31 02:02:00,80.0,-99.9,30.01,ESE,110,11.0,16.0,-999,-99.99,,,-99.99,,2013-05-31 06:02:00,
2013-05-31 02:12:00,80.0,-99.9,30.01,ESE,110,11.0,16.0,-999,-99.99,,,-99.99,,2013-05-31 06:12:00,
2013-05-31 02:22:00,80.0,-99.9,30.01,ESE,110,11.0,16.0,-999,-99.99,,,-99.99,,2013-05-31 06:22:00,
2013-05-31 02:32:00,79.0,-99.9,30.00,ESE,110,9.0,11.0,-999,-99.99,,,-99.99,,2013-05-31 06:32:00,
2013-05-31 02:42:00,79.0,-99.9,30.00,ESE,110,9.0,11.0,-999,-99.99,,,-99.99,,2013-05-31 06:42:00,
2013-05-31 02:52:00,79.0,-99.9,30.00,ESE,110,9.0,11.0,-999,-99.99,,,-99.99,,2013-05-31 06:52:00,
2013-05-31 03:02:00,80.0,-99.9,29.99,East,100,13.0,16.0,-999,-99.99,,,-99.99,,2013-05-31 07:02:00,
2013-05-31 03:12:00,80.0,-99.9,29.99,East,100,13.0,16.0,-999,-99.99,,,-99.99,,2013-05-31 07:12:00,
2013-05-31 03:22:00,80.0,-99.9,29.99,East,100,13.0,16.0,-999,-99.99,,,-99.99,,2013-05-31 07:22:00,
2013-05-31 03:32:00,81.0,-99.9,29.99,East,90,18.0,27.0,-999,-99.99,,,-99.99,,2013-05-31 07:32:00,
2013-05-31 03:42:00,81.0,-99.9,29.99,East,90,18.0,27.0,-999,-99.99,,,-99.99,,2013-05-31 07:42:00,
2013-05-31 03:53:00,81.0,-99.9,29.99,East,90,18.0,27.0,-999,-99.99,,,-99.99,,2013-05-31 07:53:00,
2013-05-31 04:02:00,79.0,-99.9,29.99,East,100,18.0,22.0,-999,-99.99,,,-99.99,,2013-05-31 08:02:00,
2013-05-31 04:11:00,79.0,-99.9,29.99,East,100,18.0,22.0,-999,-99.99,,,-99.99,,2013-05-31 08:11:00,
2013-05-31 04:22:00,79.0,-99.9,29.99,East,100,18.0,22.0,-999,-99.99,,,-99.99,,2013-05-31 08:22:00,
2013-05-31 04:32:00,79.0,-99.9,30.00,ESE,110,11.0,13.0,-999,-99.99,,,-99.99,,2013-05-31 08:32:00,
2013-05-31 04:42:00,79.0,-99.9,30.00,ESE,110,11.0,13.0,-999,-99.99,,,-99.99,,2013-05-31 08:42:00,
2013-05-31 04:52:00,79.0,-99.9,30.00,ESE,110,11.0,13.0,-999,-99.99,,,-99.99,,2013-05-31 08:52:00,
2013-05-31 05:01:00,78.0,-99.9,30.00,East,100,11.0,18.0,-999,-99.99,,,-99.99,,2013-05-31 09:01:00,
2013-05-31 05:11:00,78.0,-99.9,30.00,East,100,11.0,18.0,-999,-99.99,,,-99.99,,2013-05-31 09:11:00,
2013-05-31 05:21:00,78.0,-99.9,30.00,East,100,11.0,18.0,-999,-99.99,,,-99.99,,2013-05-31 09:21:00,
2013-05-31 05:32:00,77.0,-99.9,30.01,East,80,18.0,22.0,-999,-99.99,,,-99.99,,2013-05-31 09:32:00,
2013-05-31 05:43:00,77.0,-99.9,30.01,East,80,18.0,22.0,-999,-99.99,,,-99.99,,2013-05-31 09:43:00,
2013-05-31 05:53:00,77.0,-99.9,30.01,East,80,18.0,22.0,-999,-99.99,,,-99.99,,2013-05-31 09:53:00,
2013-05-31 06:02:00,78.0,-99.9,30.01,East,100,16.0,20.0,-999,-99.99,,,-99.99,,2013-05-31 10:02:00,
2013-05-31 06:12:00,78.0,-99.9,30.01,East,100,16.0,20.0,-999,-99.99,,,-99.99,,2013-05-31 10:12:00,
2013-05-31 06:23:00,78.0,-99.9,30.01,East,100,16.0,20.0,-999,-99.99,,,-99.99,,2013-05-31 10:23:00,
2013-05-31 06:33:00,79.0,-99.9,30.02,East,90,13.0,18.0,-999,-99.99,,,-99.99,,2013-05-31 10:33:00,
2013-05-31 06:42:00,79.0,-99.9,30.02,East,90,13.0,18.0,-999,-99.99,,,-99.99,,2013-05-31 10:42:00,
2013-05-31 06:53:00,79.0,-99.9,30.02,East,90,13.0,18.0,-999,-99.99,,,-99.99,,2013-05-31 10:53:00,
2013-05-31 07:00:00,79.0,-99.9,30.03,East,90,16.0,20.0,-999,-99.99,,,-99.99,,2013-05-31 11:00:00,
2013-05-31 07:02:00,79.0,-99.9,30.03,East,90,13.0,16.0,-999,-99.99,,,-99.99,,2013-05-31 11:02:00,
2013-05-31 07:12:00,79.0,-99.9,30.03,East,90,13.0,16.0,-999,-99.99,,,-99.99,,2013-05-31 11:12:00,
2013-05-31 07:22:00,79.0,-99.9,30.03,East,90,13.0,16.0,-999,-99.99,,,-99.99,,2013-05-31 11:22:00,
2013-05-31 07:32:00,79.0,-99.9,30.03,East,90,16.0,20.0,-999,-99.99,,,-99.99,,2013-05-31 11:32:00,
2013-05-31 07:42:00,79.0,-99.9,30.03,East,90,16.0,20.0,-999,-99.99,,,-99.99,,2013-05-31 11:42:00,
2013-05-31 07:52:00,79.0,-99.9,30.03,East,90,16.0,20.0,-999,-99.99,,,-99.99,,2013-05-31 11:52:00,
2013-05-31 08:00:00,77.0,-99.9,30.05,East,100,16.0,18.0,-999,-99.99,,,-99.99,,2013-05-31 12:00:00,
2013-05-31 08:32:00,77.0,-99.9,30.05,East,100,16.0,18.0,-999,-99.99,,,-99.99,,2013-05-31 12:32:00,
2013-05-31 08:42:00,77.0,-99.9,30.05,East,100,16.0,18.0,-999,-99.99,,,-99.99,,2013-05-31 12:42:00,
2013-05-31 08:52:00,77.0,-99.9,30.05,East,100,16.0,18.0,-999,-99.99,,,-99.99,,2013-05-31 12:52:00,
2013-05-31 09:52:00,77.0,-99.9,30.07,ESE,110,11.0,13.0,-999,-99.99,,,-99.99,,2013-05-31 13:52:00,
2013-05-31 10:02:00,79.0,-99.9,30.07,East,90,11.0,13.0,-999,-99.99,,,-99.99,,2013-05-31 14:02:00,
2013-05-31 10:11:00,79.0,-99.9,30.07,East,90,11.0,13.0,-999,-99.99,,,-99.99,,2013-05-31 14:11:00,
2013-05-31 10:22:00,79.0,-99.9,30.07,East,90,11.0,13.0,-999,-99.99,,,-99.99,,2013-05-31 14:22:00,
2013-05-31 10:32:00,78.0,-99.9,30.07,ESE,120,9.0,11.0,-999,-99.99,,,-99.99,,2013-05-31 14:32:00,
2013-05-31 10:42:00,78.0,-99.9,30.07,ESE,120,9.0,11.0,-999,-99.99,,,-99.99,,2013-05-31 14:42:00,
2013-05-31 10:52:00,78.0,-99.9,30.07,ESE,120,9.0,11.0,-999,-99.99,,,-99.99,,2013-05-31 14:52:00,
2013-05-31 11:01:00,79.0,-99.9,30.07,ESE,110,7.0,11.0,-999,-99.99,,,-99.99,,2013-05-31 15:01:00,
2013-05-31 11:11:00,79.0,-99.9,30.07,ESE,110,7.0,11.0,-999,-99.99,,,-99.99,,2013-05-31 15:11:00,
2013-05-31 11:22:00,79.0,-99.9,30.07,ESE,110,7.0,11.0,-999,-99.99,,,-99.99,,2013-05-31 15:22:00,
2013-05-31 11:33:00,79.0,-99.9,30.06,East,100,9.0,11.0,-999,-99.99,,,-99.99,,2013-05-31 15:33:00,
2013-05-31 11:43:00,79.0,-99.9,30.06,East,100,9.0,11.0,-999,-99.99,,,-99.99,,2013-05-31 15:43:00,
2013-05-31 11:53:00,79.0,-99.9,30.06,East,100,9.0,11.0,-999,-99.99,,,-99.99,,2013-05-31 15:53:00,
2013-05-31 12:03:00,79.0,-99.9,30.05,East,100,7.0,9.0,-999,-99.99,,,-99.99,,2013-05-31 16:03:00,
2013-05-31 12:12:00,79.0,-99.9,30.05,East,100,7.0,9.0,-999,-99.99,,,-99.99,,2013-05-31 16:12:00,
2013-05-31 12:22:00,79.0,-99.9,30.05,East,100,7.0,9.0,-999,-99.99,,,-99.99,,2013-05-31 16:22:00,
2013-05-31 12:33:00,81.0,-99.9,30.05,East,100,13.0,18.0,-999,-99.99,,,-99.99,,2013-05-31 16:33:00,
2013-05-31 12:42:00,81.0,-99.9,30.05,East,100,13.0,18.0,-999,-99.99,,,-99.99,,2013-05-31 16:42:00,
2013-05-31 12:53:00,81.0,-99.9,30.05,East,100,13.0,18.0,-999,-99.99,,,-99.99,,2013-05-31 16:53:00,
2013-05-31 13:02:00,81.0,-99.9,30.04,East,80,16.0,20.0,-999,-99.99,,,-99.99,,2013-05-31 17:02:00,
2013-05-31 13:12:00,81.0,-99.9,30.04,East,80,16.0,20.0,-999,-99.99,,,-99.99,,2013-05-31 17:12:00,
2013-05-31 13:22:00,81.0,-99.9,30.04,East,80,16.0,20.0,-999,-99.99,,,-99.99,,2013-05-31 17:22:00,
2013-05-31 13:32:00,81.0,-99.9,30.04,East,80,16.0,18.0,-999,-99.99,,,-99.99,,2013-05-31 17:32:00,
2013-05-31 13:42:00,81.0,-99.9,30.04,East,80,16.0,18.0,-999,-99.99,,,-99.99,,2013-05-31 17:42:00,
2013-05-31 13:52:00,81.0,-99.9,30.04,East,80,16.0,18.0,-999,-99.99,,,-99.99,,2013-05-31 17:52:00,
2013-05-31 14:02:00,81.0,-99.9,30.03,East,80,13.0,18.0,-999,-99.99,,,-99.99,,2013-05-31 18:02:00,
2013-05-31 14:12:00,81.0,-99.9,30.03,East,80,13.0,18.0,-999,-99.99,,,-99.99,,2013-05-31 18:12:00,
2013-05-31 14:22:00,81.0,-99.9,30.03,East,80,13.0,18.0,-999,-99.99,,,-99.99,,2013-05-31 18:22:00,
2013-05-31 14:32:00,81.0,-99.9,30.02,East,90,16.0,20.0,-999,-99.99,,,-99.99,,2013-05-31 18:32:00,
2013-05-31 14:42:00,81.0,-99.9,30.02,East,90,16.0,20.0,-999,-99.99,,,-99.99,,2013-05-31 18:42:00,
2013-05-31 14:52:00,81.0,-99.9,30.02,East,90,16.0,20.0,-999,-99.99,,,-99.99,,2013-05-31 18:52:00,
2013-05-31 15:02:00,81.0,-99.9,30.01,East,90,16.0,20.0,-999,-99.99,,,-99.99,,2013-05-31 19:02:00,
2013-05-31 15:12:00,81.0,-99.9,30.01,East,90,16.0,20.0,-999,-99.99,,,-99.99,,2013-05-31 19:12:00,
2013-05-31 15:22:00,81.0,-99.9,30.01,East,90,16.0,20.0,-999,-99.99,,,-99.99,,2013-05-31 19:22:00,
2013-05-31 15:32:00,81.0,-99.9,30.01,East,90,16.0,20.0,-999,-99.99,,,-99.99,,2013-05-31 19:32:00,
2013-05-31 15:42:00,81.0,-99.9,30.01,East,90,16.0,20.0,-999,-99.99,,,-99.99,,2013-05-31 19:42:00,
2013-05-31 15:52:00,81.0,-99.9,30.01,East,90,16.0,20.0,-999,-99.99,,,-99.99,,2013-05-31 19:52:00,
2013-05-31 16:02:00,79.0,-99.9,30.00,East,90,18.0,27.0,-999,-99.99,,,-99.99,,2013-05-31 20:02:00,
2013-05-31 16:11:00,79.0,-99.9,30.00,East,90,18.0,27.0,-999,-99.99,,,-99.99,,2013-05-31 20:11:00,
2013-05-31 16:22:00,79.0,-99.9,30.00,East,90,18.0,27.0,-999,-99.99,,,-99.99,,2013-05-31 20:22:00,
2013-05-31 16:32:00,80.0,-99.9,30.00,East,80,13.0,20.0,-999,-99.99,,,-99.99,,2013-05-31 20:32:00,
2013-05-31 16:42:00,80.0,-99.9,30.00,East,80,13.0,20.0,-999,-99.99,,,-99.99,,2013-05-31 20:42:00,
2013-05-31 16:52:00,80.0,-99.9,30.00,East,80,13.0,20.0,-999,-99.99,,,-99.99,,2013-05-31 20:52:00,
2013-05-31 17:01:00,79.0,-99.9,30.00,East,90,18.0,22.0,-999,-99.99,,,-99.99,,2013-05-31 21:01:00,
2013-05-31 17:12:00,79.0,-99.9,30.00,East,90,18.0,22.0,-999,-99.99,,,-99.99,,2013-05-31 21:12:00,
2013-05-31 17:22:00,79.0,-99.9,30.00,East,90,18.0,22.0,-999,-99.99,,,-99.99,,2013-05-31 21:22:00,
2013-05-31 17:33:00,79.0,-99.9,29.99,East,100,13.0,18.0,-999,-99.99,,,-99.99,,2013-05-31 21:33:00,
2013-05-31 17:43:00,79.0,-99.9,29.99,East,100,13.0,18.0,-999,-99.99,,,-99.99,,2013-05-31 21:43:00,
2013-05-31 17:54:00,79.0,-99.9,29.99,East,100,13.0,18.0,-999,-99.99,,,-99.99,,2013-05-31 21:54:00,
2013-05-31 18:03:00,80.0,-99.9,29.99,East,100,13.0,16.0,-999,-99.99,,,-99.99,,2013-05-31 22:03:00,
2013-05-31 18:12:00,80.0,-99.9,29.99,East,100,13.0,16.0,-999,-99.99,,,-99.99,,2013-05-31 22:12:00,
2013-05-31 18:22:00,80.0,-99.9,29.99,East,100,13.0,16.0,-999,-99.99,,,-99.99,,2013-05-31 22:22:00,
2013-05-31 18:33:00,80.0,-99.9,29.99,East,90,13.0,16.0,-999,-99.99,,,-99.99,,2013-05-31 22:33:00,
2013-05-31 18:42:00,80.0,-99.9,29.99,East,90,13.0,16.0,-999,-99.99,,,-99.99,,2013-05-31 22:42:00,
2013-05-31 18:53:00,80.0,-99.9,29.99,East,90,13.0,16.0,-999,-99.99,,,-99.99,,2013-05-31 22:53:00,
2013-05-31 19:02:00,81.0,-99.9,29.99,East,80,16.0,18.0,-999,-99.99,,,-99.99,,2013-05-31 23:02:00,
2013-05-31 19:12:00,81.0,-99.9,29.99,East,80,16.0,18.0,-999,-99.99,,,-99.99,,2013-05-31 23:12:00,
2013-05-31 19:22:00,81.0,-99.9,29.99,East,80,16.0,18.0,-999,-99.99,,,-99.99,,2013-05-31 23:22:00,
2013-05-31 19:32:00,81.0,-99.9,30.01,East,90,16.0,20.0,-999,-99.99,,,-99.99,,2013-05-31 23:32:00,
2013-05-31 19:42:00,81.0,-99.9,30.01,East,90,16.0,20.0,-999,-99.99,,,-99.99,,2013-05-31 23:42:00,
2013-05-31 19:52:00,81.0,-99.9,30.01,East,90,16.0,20.0,-999,-99.99,,,-99.99,,2013-05-31 23:52:00,
2013-05-31 20:01:00,81.0,-99.9,30.01,East,90,13.0,18.0,-999,-99.99,,,-99.99,,2013-06-01 00:01:00,
2013-05-31 20:12:00,81.0,-99.9,30.01,East,90,13.0,18.0,-999,-99.99,,,-99.99,,2013-06-01 00:12:00,
2013-05-31 20:22:00,81.0,-99.9,30.01,East,90,13.0,18.0,-999,-99.99,,,-99.99,,2013-06-01 00:22:00,
2013-05-31 20:32:00,81.0,-99.9,30.01,East,80,16.0,20.0,-999,-99.99,,,-99.99,,2013-06-01 00:32:00,
2013-05-31 20:42:00,81.0,-99.9,30.01,East,80,16.0,20.0,-999,-99.99,,,-99.99,,2013-06-01 00:42:00,
2013-05-31 20:52:00,81.0,-99.9,30.01,East,80,16.0,20.0,-999,-99.99,,,-99.99,,2013-06-01 00:52:00,
2013-05-31 21:02:00,81.0,-99.9,30.03,East,90,16.0,18.0,-999,-99.99,,,-99.99,,2013-06-01 01:02:00,
2013-05-31 21:11:00,81.0,-99.9,30.03,East,90,16.0,18.0,-999,-99.99,,,-99.99,,2013-06-01 01:11:00,
2013-05-31 21:22:00,81.0,-99.9,30.03,East,90,16.0,18.0,-999,-99.99,,,-99.99,,2013-06-01 01:22:00,
2013-05-31 21:32:00,81.0,-99.9,30.03,East,90,16.0,20.0,-999,-99.99,,,-99.99,,2013-06-01 01:32:00,
2013-05-31 21:42:00,81.0,-99.9,30.03,East,90,16.0,20.0,-999,-99.99,,,-99.99,,2013-06-01 01:42:00,
2013-05-31 21:52:00,81.0,-99.9,30.03,East,90,16.0,20.0,-999,-99.99,,,-99.99,,2013-06-01 01:52:00,
2013-05-31 22:02:00,81.0,-99.9,30.04,East,90,16.0,18.0,-999,-99.99,,,-99.99,,2013-06-01 02:02:00,
2013-05-31 22:12:00,81.0,-99.9,30.04,East,90,16.0,18.0,-999,-99.99,,,-99.99,,2013-06-01 02:12:00,
2013-05-31 22:22:00,81.0,-99.9,30.04,East,90,16.0,18.0,-999,-99.99,,,-99.99,,2013-06-01 02:22:00,
2013-05-31 22:32:00,81.0,-99.9,30.05,East,90,16.0,20.0,-999,-99.99,,,-99.99,,2013-06-01 02:32:00,
2013-05-31 22:42:00,81.0,-99.9,30.05,East,90,16.0,20.0,-999,-99.99,,,-99.99,,2013-06-01 02:42:00,
2013-05-31 22:52:00,81.0,-99.9,30.05,East,90,16.0,20.0,-999,-99.99,,,-99.99,,2013-06-01 02:52:00,
2013-05-31 23:02:00,81.0,-99.9,30.05,East,80,16.0,18.0,-999,-99.99,,,-99.99,,2013-06-01 03:02:00,
2013-05-31 23:12:00,81.0,-99.9,30.05,East,80,16.0,18.0,-999,-99.99,,,-99.99,,2013-06-01 03:12:00,
2013-05-31 23:22:00,81.0,-99.9,30.05,East,80,16.0,18.0,-999,-99.99,,,-99.99,,2013-06-01 03:22:00,
2013-05-31 23:33:00,80.0,-99.9,30.05,East,80,16.0,20.0,-999,-99.99,,,-99.99,,2013-06-01 03:33:00,
2013-05-31 23:43:00,80.0,-99.9,30.05,East,80,16.0,20.0,-999,-99.99,,,-99.99,,2013-06-01 03:43:00,
2013-05-31 23:53:00,80.0,-99.9,30.05,East,80,16.0,20.0,-999,-99.99,,,-99.99,,2013-06-01 03:53:00,